GW2554 Weather Reports


Display with metric or nautical units.
time (UTC)temp
F
wind
direction
speed
MPH
gust
MPH
rain 1hr
in
rain 24hr
in
rain mn
in
humidity
%
barometer
mb
20260507104317 45 231 2.0 3.0 0.00 0.00 0.00 59 1012.5
20260507103813 45 233 3.0 5.0 0.00 0.00 0.00 58 1012.6
20260507103309 45 201 2.0 2.0 0.00 0.00 0.00 58 1012.6
20260507102806 45 230 2.0 2.0 0.00 0.00 0.00 58 1012.6
20260507102306 45 232 1.0 1.0 0.00 0.00 0.00 58 1012.4
20260507101759 45 232 1.0 1.0 0.00 0.00 0.00 57 1012.6
20260507101259 46 212 1.0 1.0 0.00 0.00 0.00 56 1012.6
20260507100756 46 228 1.0 1.0 0.00 0.00 0.00 56 1012.9
20260507100255 46 220 1.0 2.0 0.00 0.00 0.00 57 1012.8
20260507095752 45 231 1.0 1.0 0.00 0.00 0.00 57 1013.1
20260507095249 46 207 2.0 2.0 0.00 0.00 0.00 56 1013.0
20260507094746 46 204 1.0 1.0 0.00 0.00 0.00 56 1012.9
20260507094243 46 178 3.0 3.0 0.00 0.00 0.00 56 1013.1
20260507093739 46 236 2.0 3.0 0.00 0.00 0.00 56 1013.3
20260507093238 46 235 0.0 1.0 0.00 0.00 0.00 56 1013.3
20260507092735 46 227 3.0 3.0 0.00 0.00 0.00 55 1013.5
20260507092231 46 225 1.0 1.0 0.00 0.00 0.00 56 1013.6
20260507091728 46 217 2.0 2.0 0.00 0.00 0.00 55 1013.6
20260507091224 47 253 3.0 3.0 0.00 0.00 0.00 54 1014.0
20260507090720 47 231 3.0 3.0 0.00 0.00 0.00 54 1014.0
20260507090217 46 233 1.0 1.0 0.00 0.00 0.00 54 1013.9
20260507085714 46 206 1.0 1.0 0.00 0.00 0.00 54 1014.1
20260507085211 46 227 1.0 1.0 0.00 0.00 0.00 54 1013.9
20260507084708 46 234 1.0 1.0 0.00 0.00 0.00 54 1013.9
20260507084204 46 231 1.0 2.0 0.00 0.00 0.00 54 1014.0
20260507083702 46 229 2.0 2.0 0.00 0.00 0.00 55 1014.1
20260507083158 46 222 0.0 1.0 0.00 0.00 0.00 56 1014.0
20260507082654 46 231 1.0 1.0 0.00 0.00 0.00 56 1014.0
20260507082150 46 237 1.0 1.0 0.00 0.00 0.00 56 1014.4
20260507081647 46 235 2.0 3.0 0.00 0.00 0.00 55 1014.3
20260507081143 46 232 1.0 1.0 0.00 0.00 0.00 55 1014.5
20260507080640 46 238 2.0 3.0 0.00 0.00 0.00 55 1014.5
20260507080136 46 233 1.0 2.0 0.00 0.00 0.00 55 1014.5
20260507075631 46 236 1.0 1.0 0.00 0.00 0.00 55 1014.5
20260507075128 45 231 3.0 3.0 0.00 0.00 0.00 56 1014.6
20260507074625 45 228 3.0 3.0 0.00 0.00 0.00 56 1014.5
20260507074123 45 240 3.0 3.0 0.00 0.00 0.00 56 1014.6
20260507073619 45 239 0.0 0.0 0.00 0.00 0.00 56 1014.7
20260507073115 45 235 1.0 1.0 0.00 0.00 0.00 56 1014.7
20260507072613 45 236 2.0 2.0 0.00 0.00 0.00 56 1014.7
20260507072110 45 236 2.0 2.0 0.00 0.00 0.00 56 1014.9
20260507071607 45 235 2.0 2.0 0.00 0.00 0.00 56 1014.8
20260507071104 45 235 1.0 2.0 0.00 0.00 0.00 57 1014.8
20260507070601 45 232 2.0 2.0 0.00 0.00 0.00 58 1015.0
20260507070058 45 238 1.0 2.0 0.00 0.00 0.00 58 1015.0
20260507065554 44 235 2.0 2.0 0.00 0.00 0.00 59 1015.0
20260507065051 44 236 1.0 2.0 0.00 0.00 0.00 59 1015.2
20260507064549 44 237 0.0 1.0 0.00 0.00 0.00 59 1015.0
20260507064048 44 237 0.0 1.0 0.00 0.00 0.00 60 1015.1
20260507063544 44 237 0.0 0.0 0.00 0.00 0.00 60 1015.1
20260507063042 44 237 0.0 1.0 0.00 0.00 0.00 59 1015.1
20260507062538 44 236 0.0 1.0 0.00 0.00 0.00 58 1015.2
20260507062036 44 236 1.0 1.0 0.00 0.00 0.00 58 1015.3
20260507061533 45 237 1.0 1.0 0.00 0.00 0.00 58 1015.3
20260507061031 45 237 1.0 1.0 0.00 0.00 0.00 57 1015.3
20260507060529 45 236 0.0 0.0 0.00 0.00 0.00 57 1015.3
20260507060025 45 233 2.0 2.0 0.00 0.00 0.00 58 1015.4
20260507055520 45 238 0.0 1.0 0.00 0.00 0.00 58 1015.5
20260507055016 45 237 1.0 1.0 0.00 0.00 0.00 58 1015.4
20260507054513 45 239 1.0 1.0 0.00 0.00 0.00 59 1015.4
20260507054010 45 239 1.0 1.0 0.00 0.00 0.00 58 1015.5
20260507053508 45 239 0.0 1.0 0.00 0.00 0.00 57 1015.3
20260507053006 46 236 2.0 2.0 0.00 0.00 0.00 56 1015.7
20260507052503 46 239 0.0 1.0 0.00 0.00 0.00 56 1015.3
20260507052000 46 239 1.0 1.0 0.00 0.00 0.00 56 1015.5
20260507051458 46 239 1.0 1.0 0.00 0.00 0.00 55 1015.6
20260507050954 46 239 0.0 1.0 0.00 0.00 0.00 55 1015.4
20260507050450 46 238 1.0 1.0 0.00 0.00 0.00 54 1015.5
20260507045948 46 236 1.0 1.0 0.00 0.00 0.00 53 1015.7
20260507045444 46 259 1.0 2.0 0.00 0.00 0.00 53 1015.4
20260507044942 46 260 0.0 0.0 0.00 0.00 0.00 54 1015.6
20260507044438 46 260 0.0 0.0 0.00 0.00 0.00 54 1015.7
20260507043934 46 260 1.0 1.0 0.00 0.00 0.00 54 1015.6
20260507043431 46 260 0.0 0.0 0.00 0.00 0.00 54 1015.8
20260507042927 46 260 0.0 0.0 0.00 0.00 0.00 54 1015.7
20260507042424 47 260 0.0 0.0 0.00 0.00 0.00 54 1015.8
20260507041919 47 260 1.0 1.0 0.00 0.00 0.00 54 1016.0
20260507041416 47 260 1.0 1.0 0.00 0.00 0.00 54 1015.6
20260507040914 47 260 0.0 0.0 0.00 0.00 0.00 54 1016.0
20260507040409 47 260 1.0 1.0 0.00 0.00 0.00 54 1016.1
20260507035905 48 260 0.0 0.0 0.00 0.00 0.00 53 1015.8
20260507035402 48 259 1.0 1.0 0.00 0.00 0.00 53 1016.0
20260507034859 48 260 1.0 1.0 0.00 0.00 0.00 53 1016.2
20260507034356 48 260 1.0 1.0 0.00 0.00 0.00 52 1016.0
20260507033854 48 260 1.0 1.0 0.00 0.00 0.00 53 1016.1
20260507033352 48 261 0.0 0.0 0.00 0.00 0.00 52 1016.1
20260507032848 48 260 0.0 0.0 0.00 0.00 0.00 51 1016.0
20260507032345 48 260 0.0 0.0 0.00 0.00 0.00 50 1016.0
20260507031841 48 171 0.0 1.0 0.00 0.00 0.00 49 1016.3
20260507031338 48 259 0.0 0.0 0.00 0.00 0.00 50 1016.2
20260507030834 48 257 0.0 0.0 0.00 0.00 0.00 49 1016.2
20260507030332 48 257 0.0 0.0 0.00 0.00 0.00 48 1016.2
20260507025829 48 257 0.0 0.0 0.00 0.00 0.00 48 1016.3
20260507025326 49 257 0.0 0.0 0.00 0.00 0.00 47 1016.4
20260507024824 49 253 0.0 0.0 0.00 0.00 0.00 46 1016.2
20260507024321 49 253 0.0 0.0 0.00 0.00 0.00 45 1016.3
20260507023817 50 253 0.0 0.0 0.00 0.00 0.00 44 1016.3
20260507023313 51 171 0.0 0.0 0.00 0.00 0.00 42 1016.1
20260507022811 51 259 1.0 1.0 0.00 0.00 0.00 40 1016.4
20260507022307 51 264 1.0 1.0 0.00 0.00 0.00 40 1016.3
20260507021803 51 265 1.0 1.0 0.00 0.00 0.00 40 1016.2
20260507021259 52 270 1.0 1.0 0.00 0.00 0.00 39 1016.0
20260507020757 52 273 1.0 1.0 0.00 0.00 0.00 39 1016.1
20260507020253 52 280 1.0 1.0 0.00 0.00 0.00 38 1016.0
20260507015751 52 283 1.0 1.0 0.00 0.00 0.00 38 1015.9
20260507015248 52 286 1.0 1.0 0.00 0.00 0.00 38 1016.2
20260507014745 52 278 1.0 1.0 0.00 0.00 0.00 38 1016.2
20260507014241 52 266 1.0 1.0 0.00 0.00 0.00 38 1015.8
20260507013738 53 264 2.0 2.0 0.00 0.00 0.00 37 1015.8
20260507013236 53 283 2.0 2.0 0.00 0.00 0.00 37 1016.1
20260507012733 53 277 1.0 2.0 0.00 0.00 0.00 37 1016.0
20260507012228 53 306 2.0 3.0 0.00 0.00 0.00 37 1015.9
20260507011726 53 300 2.0 2.0 0.00 0.00 0.00 37 1016.0
20260507011222 54 286 2.0 2.0 0.00 0.00 0.00 36 1015.9
20260507010722 54 285 2.0 2.0 0.00 0.00 0.00 36 1015.9
20260507010218 54 340 2.0 2.0 0.00 0.00 0.00 35 1015.8
20260507005716 54 296 1.0 2.0 0.00 0.00 0.00 35 1015.8
20260507005212 55 329 2.0 2.0 0.00 0.00 0.00 35 1016.1
20260507004708 55 340 2.0 3.0 0.00 0.00 0.00 34 1016.0
20260507004206 55 279 4.0 6.0 0.00 0.00 0.00 33 1016.1
20260507003702 56 298 1.0 2.0 0.00 0.00 0.00 34 1016.0
20260507003158 56 281 4.0 5.0 0.00 0.00 0.00 34 1016.1
20260507002654 56 288 1.0 2.0 0.00 0.00 0.00 34 1016.1
20260507002150 56 321 5.0 7.0 0.00 0.00 0.00 33 1016.3
20260507001647 56 309 4.0 5.0 0.00 0.00 0.00 34 1016.2
20260507001144 55 333 7.0 8.0 0.00 0.00 0.00 33 1016.3
20260507000640 56 276 4.0 6.0 0.00 0.00 0.00 34 1016.4
20260507000136 56 4 5.0 6.0 0.00 0.00 0.00 34 1016.3
20260506235633 56 356 5.0 6.0 0.00 0.00 0.00 34 1016.1
20260506235133 56 337 5.0 6.0 0.00 0.00 0.00 34 1016.2
20260506234631 56 290 7.0 9.0 0.00 0.00 0.00 33 1016.3
20260506234128 57 237 5.0 6.0 0.00 0.00 0.00 32 1016.4
20260506233625 57 314 3.0 5.0 0.00 0.00 0.00 33 1016.6
20260506233122 56 260 5.0 6.0 0.00 0.00 0.00 33 1016.4
20260506232618 55 281 2.0 2.0 0.00 0.00 0.00 34 1016.3
20260506232114 56 290 8.0 10.0 0.00 0.00 0.00 33 1016.5
20260506231611 56 287 7.0 8.0 0.00 0.00 0.00 33 1016.6
20260506231109 56 302 6.0 10.0 0.00 0.00 0.00 33 1016.7
20260506230606 57 287 6.0 8.0 0.00 0.00 0.00 33 1016.6
20260506230103 57 308 3.0 6.0 0.00 0.00 0.00 33 1016.5
20260506225559 56 291 4.0 6.0 0.00 0.00 0.00 34 1016.8
20260506225055 56 282 2.0 6.0 0.00 0.00 0.00 34 1016.7
20260506224553 55 285 5.0 6.0 0.00 0.00 0.00 33 1016.5
20260506224049 55 311 4.0 6.0 0.00 0.00 0.00 34 1016.7
20260506223545 55 266 6.0 8.0 0.00 0.00 0.00 34 1016.7
20260506223042 56 268 5.0 7.0 0.00 0.00 0.00 34 1016.5
20260506222539 57 344 6.0 8.0 0.00 0.00 0.00 33 1016.8
20260506222035 57 278 5.0 6.0 0.00 0.00 0.00 33 1016.9
20260506221532 57 287 4.0 7.0 0.00 0.00 0.00 33 1016.6
20260506221030 56 287 10.0 11.0 0.00 0.00 0.00 34 1016.7
20260506220526 56 286 5.0 7.0 0.00 0.00 0.00 34 1016.9
20260506220022 57 18 5.0 7.0 0.00 0.00 0.00 34 1016.8
20260506215519 56 321 5.0 7.0 0.00 0.00 0.00 35 1016.9
20260506215015 56 285 5.0 10.0 0.00 0.00 0.00 34 1016.8
20260506214512 57 286 3.0 5.0 0.00 0.00 0.00 35 1016.6
20260506214009 57 12 7.0 8.0 0.00 0.00 0.00 34 1016.7
20260506213507 55 335 5.0 7.0 0.00 0.00 0.00 34 1016.9
20260506213004 56 298 7.0 14.0 0.00 0.00 0.00 34 1016.8
20260506212500 55 347 7.0 10.0 0.00 0.00 0.00 35 1016.7
20260506211955 55 298 4.0 5.0 0.00 0.00 0.00 35 1017.0
20260506211451 56 239 4.0 5.0 0.00 0.00 0.00 35 1016.8
20260506210948 56 335 6.0 8.0 0.00 0.00 0.00 35 1016.8
20260506210444 55 291 4.0 6.0 0.00 0.00 0.00 34 1016.8
20260506205942 57 327 6.0 7.0 0.00 0.00 0.00 35 1017.0
20260506205438 56 268 9.0 10.0 0.00 0.00 0.00 35 1017.2
20260506204934 56 282 5.0 7.0 0.00 0.00 0.00 34 1017.0
20260506204432 56 300 5.0 6.0 0.00 0.00 0.00 34 1017.4
20260506203930 54 280 5.0 6.0 0.00 0.00 0.00 35 1017.1
20260506203427 55 308 7.0 8.0 0.00 0.00 0.00 35 1017.4
20260506202923 56 340 10.0 14.0 0.00 0.00 0.00 34 1017.2
20260506202421 55 265 7.0 9.0 0.00 0.00 0.00 35 1017.3
20260506201917 56 301 6.0 8.0 0.00 0.00 0.00 35 1017.4
20260506201415 56 306 13.0 18.0 0.00 0.00 0.00 34 1017.3
20260506200911 56 232 13.0 20.0 0.00 0.00 0.00 35 1017.2
20260506200407 55 295 3.0 5.0 0.00 0.00 0.00 35 1017.5
20260506195904 56 264 7.0 9.0 0.00 0.00 0.00 35 1017.6
20260506195401 55 295 2.0 3.0 0.00 0.00 0.00 36 1017.5
20260506194858 55 333 7.0 9.0 0.00 0.00 0.00 35 1017.6
20260506194354 55 282 9.0 11.0 0.00 0.00 0.00 36 1017.8
20260506193852 54 53 4.0 5.0 0.00 0.00 0.00 36 1017.5
20260506193349 55 256 8.0 9.0 0.00 0.00 0.00 36 1017.6
20260506192845 54 276 9.0 13.0 0.00 0.00 0.00 36 1017.6
20260506192342 54 275 14.0 20.0 0.00 0.00 0.00 37 1017.9
20260506191839 54 275 8.0 9.0 0.00 0.00 0.00 37 1017.8
20260506191335 55 340 6.0 8.0 0.00 0.00 0.00 36 1017.5
20260506190832 55 272 9.0 10.0 0.00 0.00 0.00 36 1017.9
20260506190328 53 283 7.0 9.0 0.00 0.00 0.00 37 1017.4
20260506185825 53 354 9.0 13.0 0.00 0.00 0.00 37 1017.5
20260506185322 53 291 4.0 7.0 0.00 0.00 0.00 37 1017.9
20260506184819 53 312 5.0 8.0 0.00 0.00 0.00 38 1017.9
20260506184317 54 299 8.0 11.0 0.00 0.00 0.00 36 1017.6
20260506183814 53 278 3.0 3.0 0.00 0.00 0.00 39 1017.8
20260506183309 53 308 9.0 11.0 0.00 0.00 0.00 38 1018.1
20260506182806 52 287 7.0 8.0 0.00 0.00 0.00 39 1018.0
20260506182306 53 284 8.0 10.0 0.00 0.00 0.00 38 1018.1
20260506181801 53 247 6.0 8.0 0.00 0.00 0.00 38 1018.2
20260506181259 53 234 10.0 11.0 0.00 0.00 0.00 39 1018.2
20260506180756 52 326 3.0 5.0 0.00 0.00 0.00 40 1018.2
20260506180251 52 29 5.0 6.0 0.00 0.00 0.00 41 1018.4
20260506175748 52 319 3.0 6.0 0.00 0.00 0.00 40 1018.4
20260506175245 51 276 8.0 11.0 0.00 0.00 0.00 41 1018.5
20260506174742 52 296 4.0 6.0 0.00 0.00 0.00 41 1018.4
20260506174239 51 337 7.0 11.0 0.00 0.00 0.00 41 1018.4
20260506173737 51 280 4.0 6.0 0.00 0.00 0.00 42 1018.4
20260506173228 51 296 5.0 8.0 0.00 0.00 0.00 42 1018.6
20260506172725 51 261 3.0 6.0 0.00 0.00 0.00 42 1018.7
20260506172221 51 272 5.0 10.0 0.00 0.00 0.00 42 1018.7
20260506171719 51 322 5.0 7.0 0.00 0.00 0.00 41 1018.7
20260506171216 51 284 7.0 9.0 0.00 0.00 0.00 42 1018.6
20260506170714 50 0 1.0 3.0 0.00 0.00 0.00 42 1018.7
20260506170210 50 346 4.0 6.0 0.00 0.00 0.00 42 1018.8
20260506165709 50 280 9.0 13.0 0.00 0.00 0.00 42 1018.8
20260506165205 50 348 7.0 8.0 0.00 0.00 0.00 42 1018.7
20260506164702 51 2 3.0 3.0 0.00 0.00 0.00 42 1018.6
20260506164159 50 274 5.0 6.0 0.00 0.00 0.00 42 1018.7
20260506163655 50 352 4.0 7.0 0.00 0.00 0.00 42 1018.9
20260506163151 50 303 7.0 10.0 0.00 0.00 0.00 41 1018.7
20260506162647 50 268 9.0 10.0 0.00 0.00 0.00 41 1018.7
20260506162145 50 255 7.0 7.0 0.00 0.00 0.00 42 1018.5
20260506161642 50 355 7.0 8.0 0.00 0.00 0.00 44 1018.6
20260506161139 49 303 7.0 8.0 0.00 0.00 0.00 43 1018.3
20260506160636 50 30 2.0 3.0 0.00 0.00 0.00 43 1018.5
20260506160133 49 318 8.0 9.0 0.00 0.00 0.00 45 1018.6
20260506155632 50 295 1.0 2.0 0.00 0.00 0.00 45 1018.6
20260506155128 50 288 3.0 3.0 0.00 0.00 0.00 45 1018.6
20260506153225 49 292 3.0 5.0 0.00 0.00 0.00 45 1018.5
20260506152721 49 286 5.0 8.0 0.00 0.00 0.00 46 1018.5
20260506152219 49 265 4.0 5.0 0.00 0.00 0.00 47 1018.4
20260506151718 50 324 3.0 5.0 0.00 0.00 0.00 46 1018.3
20260506151214 50 21 4.0 6.0 0.00 0.00 0.00 46 1018.1
20260506150710 49 270 2.0 2.0 0.00 0.00 0.00 46 1018.5
20260506150207 49 266 2.0 2.0 0.00 0.00 0.00 47 1018.4
20260506145704 49 357 5.0 6.0 0.00 0.00 0.00 48 1018.4
20260506145201 48 275 1.0 1.0 0.00 0.00 0.00 48 1018.2
20260506144659 48 277 5.0 6.0 0.00 0.00 0.00 48 1018.2
20260506144155 48 286 5.0 6.0 0.00 0.00 0.00 48 1018.4
20260506143653 48 2 4.0 5.0 0.00 0.00 0.00 48 1018.5
20260506143151 48 339 1.0 2.0 0.00 0.00 0.00 48 1018.1
20260506142649 47 251 1.0 2.0 0.00 0.00 0.00 48 1018.5
20260506142146 47 7 3.0 3.0 0.00 0.00 0.00 48 1018.3
20260506141644 47 359 3.0 3.0 0.00 0.00 0.00 49 1018.3
20260506141142 46 327 2.0 3.0 0.00 0.00 0.00 49 1018.2
20260506140639 46 322 2.0 2.0 0.00 0.00 0.00 50 1018.2
20260506140137 46 296 1.0 2.0 0.00 0.00 0.00 50 1018.2
20260506135633 46 339 3.0 3.0 0.00 0.00 0.00 50 1018.1
20260506135130 46 40 5.0 6.0 0.00 0.00 0.00 51 1018.0
20260506134626 45 31 3.0 3.0 0.00 0.00 0.00 52 1017.9
20260506134122 45 22 5.0 7.0 0.00 0.00 0.00 52 1018.1
20260506133620 45 44 2.0 3.0 0.00 0.00 0.00 53 1017.8
20260506133116 45 4 5.0 6.0 0.00 0.00 0.00 53 1018.0
20260506132614 44 15 3.0 3.0 0.00 0.00 0.00 55 1017.5
20260506132110 44 353 3.0 3.0 0.00 0.00 0.00 56 1017.6
20260506131608 44 8 5.0 6.0 0.00 0.00 0.00 57 1017.6
20260506131104 43 359 3.0 5.0 0.00 0.00 0.00 58 1017.8
20260506130601 43 327 2.0 2.0 0.00 0.00 0.00 58 1017.6
20260506130059 43 340 4.0 5.0 0.00 0.00 0.00 58 1017.4
20260506125557 43 33 3.0 5.0 0.00 0.00 0.00 59 1017.6
20260506125054 42 342 3.0 3.0 0.00 0.00 0.00 60 1017.4
20260506124552 42 337 3.0 3.0 0.00 0.00 0.00 60 1017.6
20260506124049 42 346 7.0 8.0 0.00 0.00 0.00 60 1017.3
20260506123547 41 344 2.0 2.0 0.00 0.00 0.00 61 1017.6
20260506123045 41 352 0.0 1.0 0.00 0.00 0.00 62 1017.2
20260506122541 41 7 2.0 2.0 0.00 0.00 0.00 62 1017.3
20260506122040 41 344 3.0 3.0 0.00 0.00 0.00 62 1016.9
20260506121537 41 340 1.0 2.0 0.00 0.00 0.00 63 1017.1
20260506121033 41 344 4.0 5.0 0.00 0.00 0.00 63 1017.0
20260506120531 41 338 2.0 2.0 0.00 0.00 0.00 63 1016.9
20260506120028 41 339 3.0 3.0 0.00 0.00 0.00 63 1017.0
20260506115526 41 340 3.0 3.0 0.00 0.00 0.00 63 1016.9
20260506115024 41 348 3.0 3.0 0.00 0.00 0.00 63 1017.2
20260506114521 41 311 2.0 2.0 0.00 0.00 0.00 63 1016.9
20260506114020 41 338 4.0 5.0 0.00 0.00 0.00 63 1016.7
20260506113517 41 340 3.0 3.0 0.00 0.00 0.00 63 1016.8
20260506113015 41 347 2.0 2.0 0.00 0.00 0.00 63 1016.6
20260506112511 41 315 1.0 2.0 0.00 0.00 0.00 62 1016.6
20260506112008 41 307 2.0 3.0 0.00 0.00 0.00 62 1016.3
20260506111507 41 350 4.0 5.0 0.00 0.00 0.00 62 1016.4
20260506111003 41 335 4.0 5.0 0.00 0.00 0.00 61 1016.3
20260506110501 41 326 3.0 3.0 0.00 0.00 0.00 61 1016.2
20260506105957 41 328 4.0 5.0 0.00 0.00 0.00 61 1016.1
20260506105454 41 341 3.0 3.0 0.00 0.00 0.00 61 1016.2
20260506104951 41 338 3.0 3.0 0.00 0.00 0.00 61 1016.0
20260506104449 41 351 4.0 5.0 0.00 0.00 0.00 61 1016.1